• în România
  • Lista ţărilor
  • Pe 7 zile
  • Temperatura apei
  • Hartă satelitară
  • Meteo pe hartă
  • Widget-uri
  • user-avatar
    Intrare

    Meteo pe oră la Igls

    Astăzi, 21 Iulie, Vineri

    Timp Temperatura Precipitaţii Vânt Presiune Umiditate
    00:00 +16°C° 0,4 mm 1 m/s 685 mmHg 93%
    01:00 +16°C° 0,4 mm 1 m/s 685 mmHg 92%
    02:00 +16°C° 0,1 mm 1 m/s 685 mmHg 91%
    03:00 +16°C° 0,1 mm 1 m/s 685 mmHg 90%
    04:00 +15°C° 0,1 mm 1 m/s 685 mmHg 88%
    05:00 +16°C° 0 mm 1 m/s 685 mmHg 85%
    06:00 +19°C° 0 mm 1 m/s 685 mmHg 81%
    07:00 +20°C° 0 mm 1 m/s 685 mmHg 77%
    08:00 +21°C° 0 mm 1 m/s 685 mmHg 69%
    09:00 +23°C° 0 mm 1 m/s 686 mmHg 61%
    10:00 +25°C° 0 mm 2 m/s 686 mmHg 53%
    11:00 +26°C° 0,2 mm 2 m/s 686 mmHg 50%
    12:00 +27°C° 0,2 mm 2 m/s 686 mmHg 48%
    13:00 +28°C° 0,2 mm 2 m/s 686 mmHg 46%
    14:00 +28°C° 0,6 mm 2 m/s 685 mmHg 49%
    15:00 +27°C° 0,6 mm 3 m/s 685 mmHg 52%
    16:00 +27°C° 0,6 mm 3 m/s 685 mmHg 55%
    17:00 +25°C° 1,8 mm 2 m/s 684 mmHg 64%
    18:00 +24°C° 1,8 mm 2 m/s 684 mmHg 73%
    19:00 +22°C° 1,8 mm 1 m/s 684 mmHg 82%
    20:00 +21°C° 1,3 mm 1 m/s 684 mmHg 84%
    21:00 +19°C° 1,3 mm 2 m/s 684 mmHg 87%
    22:00 +18°C° 1,3 mm 2 m/s 684 mmHg 89%
    23:00 +18°C° 0,6 mm 2 m/s 684 mmHg 89%

    Mâine, 22 Iulie, Sâmbătă

    Timp Temperatura Precipitaţii Vânt Presiune Umiditate
    00:00 +17°C° 0,6 mm 2 m/s 684 mmHg 90%
    01:00 +17°C° 0,6 mm 2 m/s 684 mmHg 90%
    02:00 +17°C° 0,5 mm 2 m/s 684 mmHg 90%
    03:00 +16°C° 0,5 mm 2 m/s 684 mmHg 90%
    04:00 +16°C° 0,5 mm 1 m/s 684 mmHg 91%
    05:00 +18°C° 0,1 mm 1 m/s 685 mmHg 87%
    06:00 +19°C° 0,1 mm 1 m/s 685 mmHg 84%
    07:00 +20°C° 0,1 mm 1 m/s 685 mmHg 81%
    08:00 +22°C° 0,1 mm 1 m/s 686 mmHg 72%
    09:00 +25°C° 0,1 mm 1 m/s 686 mmHg 63%
    10:00 +27°C° 0,1 mm 1 m/s 687 mmHg 54%
    11:00 +27°C° 0,1 mm 1 m/s 686 mmHg 52%
    12:00 +28°C° 0,1 mm 1 m/s 686 mmHg 50%
    13:00 +28°C° 0,1 mm 1 m/s 686 mmHg 47%
    14:00 +27°C° 0,7 mm 1 m/s 686 mmHg 54%
    15:00 +27°C° 0,7 mm 1 m/s 686 mmHg 60%
    16:00 +26°C° 0,7 mm 1 m/s 686 mmHg 66%
    17:00 +25°C° 1,7 mm 1 m/s 686 mmHg 73%
    18:00 +24°C° 1,7 mm 1 m/s 686 mmHg 79%
    19:00 +20°C° 1,7 mm 0 m/s 686 mmHg 86%
    20:00 +19°C° 1,6 mm 0 m/s 686 mmHg 89%
    21:00 +18°C° 1,6 mm 0 m/s 686 mmHg 91%
    22:00 +17°C° 1,6 mm 0 m/s 686 mmHg 94%
    23:00 +19°C° 1 mm 1 m/s 686 mmHg 94%

    Poimâine, 23 Iulie, Duminică

    Timp Temperatura Precipitaţii Vânt Presiune Umiditate
    00:00 +19°C° 1 mm 1 m/s 686 mmHg 94%
    01:00 +18°C° 1 mm 1 m/s 686 mmHg 95%
    02:00 +18°C° 0,3 mm 1 m/s 686 mmHg 94%
    03:00 +18°C° 0,3 mm 1 m/s 686 mmHg 94%
    04:00 +18°C° 0,3 mm 1 m/s 685 mmHg 94%
    05:00 +19°C° 0 mm 1 m/s 686 mmHg 91%
    06:00 +20°C° 0 mm 1 m/s 686 mmHg 87%
    07:00 +21°C° 0 mm 1 m/s 686 mmHg 84%
    08:00 +22°C° 0,1 mm 1 m/s 687 mmHg 75%
    09:00 +24°C° 0,1 mm 1 m/s 687 mmHg 66%
    10:00 +26°C° 0,1 mm 2 m/s 687 mmHg 57%
    11:00 +26°C° 0,3 mm 2 m/s 687 mmHg 59%
    12:00 +26°C° 0,3 mm 2 m/s 687 mmHg 61%
    13:00 +26°C° 0,3 mm 1 m/s 687 mmHg 63%
    14:00 +25°C° 0,7 mm 2 m/s 687 mmHg 69%
    15:00 +24°C° 0,7 mm 2 m/s 686 mmHg 74%
    16:00 +23°C° 0,7 mm 2 m/s 686 mmHg 80%
    17:00 +22°C° 1,8 mm 1 m/s 686 mmHg 85%
    18:00 +21°C° 1,8 mm 1 m/s 686 mmHg 89%
    19:00 +20°C° 1,8 mm 1 m/s 686 mmHg 94%
    20:00 +20°C° 2,9 mm 1 m/s 686 mmHg 95%
    21:00 +19°C° 2,9 mm 1 m/s 686 mmHg 96%
    22:00 +19°C° 2,9 mm 1 m/s 686 mmHg 97%
    23:00 +19°C° 1,5 mm 1 m/s 686 mmHg 97%

    24 Iulie, Luni

    Timp Temperatura Precipitaţii Vânt Presiune Umiditate
    00:00 +18°C° 1,5 mm 1 m/s 685 mmHg 97%
    01:00 +18°C° 1,5 mm 1 m/s 685 mmHg 98%
    02:00 +18°C° 0,9 mm 1 m/s 685 mmHg 98%
    03:00 +18°C° 0,9 mm 1 m/s 684 mmHg 98%
    04:00 +16°C° 0,9 mm 1 m/s 684 mmHg 98%
    05:00 +18°C° 0,4 mm 1 m/s 683 mmHg 97%
    06:00 +18°C° 0,4 mm 1 m/s 683 mmHg 96%
    07:00 +18°C° 0,4 mm 1 m/s 683 mmHg 95%
    08:00 +19°C° 0,6 mm 1 m/s 683 mmHg 90%
    09:00 +20°C° 0,6 mm 1 m/s 683 mmHg 84%
    10:00 +21°C° 0,6 mm 1 m/s 682 mmHg 79%
    11:00 +21°C° 2 mm 1 m/s 682 mmHg 81%
    12:00 +20°C° 2 mm 1 m/s 682 mmHg 83%
    13:00 +19°C° 2 mm 2 m/s 681 mmHg 85%
    14:00 +18°C° 4,2 mm 2 m/s 681 mmHg 89%
    15:00 +17°C° 4,2 mm 2 m/s 681 mmHg 93%
    16:00 +15°C° 4,2 mm 2 m/s 681 mmHg 96%
    17:00 +15°C° 1,2 mm 2 m/s 681 mmHg 96%
    18:00 +15°C° 1,2 mm 2 m/s 681 mmHg 96%
    19:00 +15°C° 1,2 mm 2 m/s 682 mmHg 95%
    20:00 +14°C° 0,1 mm 2 m/s 682 mmHg 96%
    21:00 +14°C° 0,1 mm 2 m/s 682 mmHg 96%
    22:00 +13°C° 0,1 mm 2 m/s 682 mmHg 96%
    23:00 +13°C° 0 mm 2 m/s 682 mmHg 96%

    25 Iulie, Marţi

    Timp Temperatura Precipitaţii Vânt Presiune Umiditate
    00:00 +13°C° 0 mm 2 m/s 682 mmHg 96%
    01:00 +12°C° 0 mm 2 m/s 682 mmHg 96%
    02:00 +12°C° 0 mm 2 m/s 682 mmHg 96%
    03:00 +12°C° 0 mm 2 m/s 681 mmHg 95%
    04:00 +10°C° 0 mm 2 m/s 681 mmHg 95%
    05:00 +12°C° 0,1 mm 2 m/s 681 mmHg 94%
    06:00 +13°C° 0,1 mm 2 m/s 681 mmHg 92%
    07:00 +14°C° 0,1 mm 2 m/s 682 mmHg 90%
    08:00 +15°C° 0,2 mm 2 m/s 682 mmHg 86%
    09:00 +16°C° 0,2 mm 2 m/s 682 mmHg 83%
    10:00 +16°C° 0,2 mm 2 m/s 682 mmHg 79%
    11:00 +17°C° 0,3 mm 2 m/s 682 mmHg 77%
    12:00 +18°C° 0,3 mm 2 m/s 682 mmHg 74%
    13:00 +18°C° 0,3 mm 3 m/s 682 mmHg 72%
    14:00 +18°C° 0,4 mm 3 m/s 682 mmHg 72%
    15:00 +18°C° 0,4 mm 3 m/s 683 mmHg 72%
    16:00 +18°C° 0,4 mm 3 m/s 683 mmHg 72%
    17:00 +17°C° 0,3 mm 2 m/s 683 mmHg 77%
    18:00 +16°C° 0,3 mm 2 m/s 683 mmHg 82%
    19:00 +15°C° 0,3 mm 2 m/s 683 mmHg 86%
    20:00 +14°C° 0,1 mm 2 m/s 683 mmHg 89%
    21:00 +13°C° 0,1 mm 2 m/s 683 mmHg 92%
    22:00 +12°C° 0,1 mm 2 m/s 684 mmHg 95%
    23:00 +10°C° 0 mm 2 m/s 684 mmHg 95%

    26 Iulie, Miercuri

    Timp Temperatura Precipitaţii Vânt Presiune Umiditate
    00:00 +10°C° 0 mm 2 m/s 684 mmHg 95%
    01:00 +9°C° 0 mm 2 m/s 684 mmHg 95%
    02:00 +10°C° 0 mm 1 m/s 684 mmHg 95%
    03:00 +10°C° 0 mm 1 m/s 684 mmHg 94%
    04:00 +9°C° 0 mm 1 m/s 684 mmHg 94%
    05:00 +11°C° 0 mm 1 m/s 684 mmHg 89%
    06:00 +12°C° 0 mm 1 m/s 684 mmHg 84%
    07:00 +14°C° 0 mm 1 m/s 685 mmHg 79%
    08:00 +16°C° 0 mm 1 m/s 685 mmHg 67%
    09:00 +19°C° 0 mm 1 m/s 685 mmHg 56%
    10:00 +22°C° 0 mm 1 m/s 686 mmHg 45%
    11:00 +23°C° 0 mm 1 m/s 686 mmHg 42%
    12:00 +24°C° 0 mm 1 m/s 686 mmHg 40%
    13:00 +25°C° 0 mm 1 m/s 686 mmHg 37%
    14:00 +25°C° 0 mm 1 m/s 685 mmHg 39%
    15:00 +25°C° 0 mm 2 m/s 685 mmHg 40%
    16:00 +25°C° 0 mm 2 m/s 685 mmHg 42%
    17:00 +23°C° 0 mm 2 m/s 685 mmHg 52%
    18:00 +22°C° 0 mm 1 m/s 685 mmHg 62%
    19:00 +20°C° 0 mm 1 m/s 685 mmHg 72%
    20:00 +18°C° 0 mm 1 m/s 685 mmHg 78%
    21:00 +16°C° 0 mm 1 m/s 685 mmHg 83%
    22:00 +14°C° 0 mm 1 m/s 685 mmHg 89%
    23:00 +14°C° 0 mm 1 m/s 685 mmHg 87%
    Arată mai mult